Tracking 29892 objects as of 21-Nov-2024
HD Live streaming from Space Station
objects crossing your sky now

STARLINK-31340

Track STARLINK-31340 now!
10-day predictions
STARLINK-31340 is classified as:


NORAD ID: 59170
Int'l Code: 2024-044U
Perigee: 449.9 km
Apogee: 452.4 km
Inclination: 43.0 °
Period: 93.5 minutes
Semi major axis: 6822 km
RCS: Unknown
Launch date: March 4, 2024
Source: United States (US)
Launch site: AIR FORCE EASTERN TEST RANGE (AFETR)
Your satellite tracking list
Your tracking list is empty




NASA's NSSDC Master Catalog

Two Line Element Set (TLE):
1 59170U 24044U   24325.97517886 -.00001320  00000-0 -24325-4 0  9991
2 59170  43.0017 237.5574 0001843 269.7137  90.3508 15.40696363 41286
Source of the keplerian elements: AFSPC